Regional Weather Roundup
Issued by NWS Charleston, SC

Current Version | Previous Version | Graphics & Text | Print | Product List | Glossary On
Versions: 1 2 3 4 5 6 7 8 9 10 11 12 13 14 15 16 17 18 19 20 21 22 23 24 25 26 27 28 29 30 31 32 33 34 35 36 37 38 39 40 41 42 43 44 45 46 47 48 49 50
000 ASUS42 KCHS 020410 RWRCHS REGIONAL WEATHER ROUNDUP NATIONAL WEATHER SERVICE CHARLESTON SC 1200 AM EDT THU OCT 02 2014 NOTE: "FAIR" INDICATES FEW OR NO CLOUDS BELOW 12,000 FEET WITH NO SIGNIFICANT WEATHER AND/OR OBSTRUCTIONS TO VISIBILITY. NOT ALL STATIONS ARE QUALITY CONTROLLED BY THE NATIONAL WEATHER SERVICE. USE DATA WITH CAUTION...ESPECIALLY DEWPOINT OBSERVATIONS. SCZ027-030-031-034>040-042>050-020500- ...SOUTH CAROLINA... CITY SKY/WX TMP DP RH WIND PRES REMARKS N CHARLESTON PTCLDY 68 64 87 CALM 30.04R WATERFRONT PRK N/A 72 N/A N/A CALM N/A FORT JOHNSON NOT AVBL MOUNT PLEASANT FAIR 64 64 100 CALM 30.04S FOG JOHNS ISLAND CLEAR 66 66 100 CALM 30.04S PINOPOLIS N/A 72 66 83 CALM 29.96S MONCKS CORNER FAIR 66 66 100 CALM 30.04R FOG SUMMERVILLE N/A 64 64 100 CALM 30.05S BEAUFORT MCAS CLEAR 69 66 90 CALM 30.03S BEAUFORT ARPT FAIR 68 68 100 CALM 30.03S HILTON HEAD IS CLEAR 70 66 88 NE3 30.04S GEORGETOWN NOT AVBL WALTERBORO CLEAR 68 N/A N/A CALM 30.05S ORANGEBURG CLEAR 67 64 90 CALM 30.04S BARNWELL FAIR 70 66 88 S3 30.05S AIKEN FAIR 66 64 94 S5 30.08S MANNING FAIR 66 N/A N/A CALM 30.04S KINGSTREE NOT AVBL COLUMBIA PTCLDY 70 61 73 SW3 30.03R SUMTER CLEAR 67 64 87 S3 30.03R FLORENCE PTCLDY 68 65 90 SE3 30.04S MYRTLE BEACH CLEAR 70 64 83 CALM 30.04S N MYRTLE BEACH CLEAR 66 64 93 CALM 30.04R FOG $$ GAZ063-065-086>088-099>101-113>116-118-119-134-136>141-150-020500- ...GEORGIA... CITY SKY/WX TMP DP RH WIND PRES REMARKS SAVANNAH ARPT MOCLDY 68 65 90 CALM 30.03F HUNTER AAF PTCLDY 66 65 97 NW2 30.01S FORT STEWART PTCLDY 65 63 94 CALM 30.02S STATESBORO NOT AVBL SYLVANIA PTCLDY 69 68 97 CALM 30.05S FOG CLAXTON FAIR 66 66 100 CALM 30.04S THOMSON CLEAR 67 67 100 CALM 30.08S AUGUSTA-BUSH CLEAR 61 60 97 CALM 30.03R AUGUSTA-DANIEL CLEAR 72 63 73 SE5 30.05R SWAINSBORO FAIR 72 70 94 S3 30.05S VIDALIA CLEAR 70 68 94 CALM 30.04S ALMA PTCLDY 66 65 96 CALM 30.03R FOG WAYCROSS CLEAR 71 70 98 CALM 30.02F JESUP FAIR 70 68 94 CALM 30.03S BRUNSWICK CLOUDY 70 68 94 CALM 30.02F SAINT SIMONS MOCLDY 75 69 81 NE6 30.01F $$ SCZ027-028-034-036>038-045-046-048>050-GAZ119-141-020500- ...LAKE AND SUPPLEMENTAL COASTAL OBSERVATIONS... STATION/POSITION TIME TEMP WIND PRES WAVE SWELL AIR SEA DIR/SP/G HT/PER HT/PER/DIR (UTC) (F) (DEG/KT/KT) (MB) (FT/S) (FT/S/D) UPR LAKE MARION NOT AVBL WINYAH BAY 0300 67 CALM 1017.0R LAKE MURRAY 0300 75 160/ 4/ 6 1016.3R ACE BASIN NERRS 0300 67 CALM 1017.0S FORT PULASKI 0400 110/ 4/ 5 1017.0S SAPELO ISLAND NOT AVBL $$ ANZ835-935-AMZ111-154-330-350-352-354-374-450-454-472-020500- ...C-MAN AND BUOY OBSERVATIONS... STATION/POSITION TIME TEMP WIND PRES WAVE SWELL AIR SEA DIR/SP/G HT/PER HT/PER/DIR (UTC) (F) (DEG/KT/KT) (MB) (FT/S) (FT/S/D) FOLLY BEACH CMAN 0300 75 90/ 5/ 5 1017.3R BUOY 41004 0400 77 81 70/ 10/ 12 1016.4S 2/ 6 2/ 6 BUOY 41008 0400 78 79 90/ 10/ 12 1016.3F 2/ 4 2/ 70/ 8 5E ST. MARYS GA 0400 79 N/A 3/ 7 FRYING PAN BUOY NOT AVBL BUOY 41025 0400 71 10/ 16/ 17 1016.4S 3/ 7 2/ 60/ 7 CAPE LOOKOUT NC 0300 73 50/ 9/ 10 1016.7R BUOY 41002 0310 79 80 40/ 12/ 14 1015.3 4/ 6 2/ 20/ 6 BUOY 41010 0400 80 85 50/ 16/ 17 1014.9F 3/ 7 2/ 20/ 7 BUOY 41012 NOT AVBL ST AUGUSTINE FL 0400 79 80/ 8/ 8 1016.5R CAPERS NEARSHORE 0300 75 110/ 4/ 6 N/A FRIPP NEARSHORE NOT AVBL $$

USA.gov is the U.S. government's official web portal to all federal, state and local government web resources and services.